| time (UTC) | temp C | wind direction | speed KPH | gust KPH | rain 1hr cm | rain 24hr cm | rain mn cm | humidity % | barometer mb |
| 20260830210004 | 18 | 181 | 1.6 | 3.2 | 0.00 | 0.03 | 0.03 | 62 | 1018.7 |
| 20260830205003 | 18 | 154 | 3.2 | 4.8 | 0.00 | 0.03 | 0.03 | 61 | 1018.8 |
| 20260830204004 | 18 | 139 | 3.2 | 6.4 | 0.00 | 0.03 | 0.03 | 61 | 1018.6 |
| 20260830203004 | 18 | 140 | 3.2 | 6.4 | 0.00 | 0.03 | 0.03 | 62 | 1018.8 |
| 20260830202004 | 18 | 138 | 3.2 | 6.4 | 0.00 | 0.03 | 0.03 | 61 | 1018.8 |
| 20260830201003 | 18 | 136 | 3.2 | 6.4 | 0.00 | 0.03 | 0.03 | 61 | 1018.8 |
| 20260830200004 | 18 | 160 | 3.2 | 4.8 | 0.00 | 0.03 | 0.03 | 59 | 1019.0 |
| 20260830195004 | 18 | 141 | 3.2 | 4.8 | 0.00 | 0.03 | 0.03 | 57 | 1018.9 |
| 20260830194003 | 19 | 135 | 3.2 | 6.4 | 0.00 | 0.03 | 0.03 | 56 | 1018.8 |
| 20260830193003 | 19 | 188 | 3.2 | 3.2 | 0.00 | 0.03 | 0.03 | 56 | 1018.7 |
| 20260830192004 | 19 | 135 | 1.6 | 4.8 | 0.00 | 0.03 | 0.03 | 55 | 1018.8 |
| 20260830190004 | 20 | 135 | 3.2 | 6.4 | 0.00 | 0.03 | 0.03 | 52 | 1018.7 |
| 20260830185003 | 20 | 141 | 3.2 | 4.8 | 0.00 | 0.03 | 0.03 | 52 | 1018.5 |
| 20260830184004 | 20 | 135 | 3.2 | 3.2 | 0.00 | 0.03 | 0.03 | 52 | 1018.6 |
| 20260830183004 | 20 | 135 | 0.0 | 3.2 | 0.00 | 0.03 | 0.03 | 51 | 1018.5 |
| 20260830181004 | 21 | 0 | 0.0 | 0.0 | 0.00 | 0.03 | 0.03 | 49 | 1018.6 |
| 20260830175003 | 22 | 154 | 0.0 | 3.2 | 0.00 | 0.03 | 0.03 | 43 | 1018.2 |
| 20260830174003 | 23 | 0 | 0.0 | 0.0 | 0.00 | 0.03 | 0.03 | 42 | 1018.1 |
| 20260830173003 | 24 | 0 | 0.0 | 0.0 | 0.00 | 0.03 | 0.03 | 39 | 1018.0 |
| 20260830172005 | 25 | 0 | 0.0 | 0.0 | 0.00 | 0.03 | 0.03 | 34 | 1018.0 |
| 20260830171003 | 27 | 0 | 0.0 | 0.0 | 0.00 | 0.03 | 0.03 | 29 | 1017.9 |
| 20260830170004 | 28 | 0 | 0.0 | 0.0 | 0.00 | 0.03 | 0.03 | 25 | 1017.9 |
| 20260830165004 | 31 | 225 | 0.0 | 3.2 | 0.00 | 0.03 | 0.03 | 20 | 1017.8 |
| 20260830164004 | 33 | 230 | 0.0 | 4.8 | 0.00 | 0.03 | 0.03 | 13 | 1017.9 |
| 20260830163004 | 33 | 213 | 0.0 | 8.0 | 0.00 | 0.03 | 0.03 | 14 | 1017.9 |
| 20260830162003 | 33 | 231 | 3.2 | 9.7 | 0.00 | 0.03 | 0.03 | 12 | 1017.7 |
| 20260830161004 | 34 | 270 | 0.0 | 12.9 | 0.00 | 0.03 | 0.03 | 11 | 1018.0 |
| 20260830155003 | 36 | 205 | 3.2 | 9.7 | 0.00 | 0.03 | 0.03 | 10 | 1018.0 |
| 20260830154004 | 35 | 243 | 0.0 | 12.9 | 0.00 | 0.03 | 0.03 | 11 | 1018.1 |
| 20260830153004 | 34 | 182 | 6.4 | 12.9 | 0.00 | 0.03 | 0.03 | 11 | 1017.9 |
| 20260830152004 | 35 | 205 | 6.4 | 12.9 | 0.00 | 0.03 | 0.03 | 10 | 1018.2 |
| 20260830151004 | 35 | 186 | 4.8 | 12.9 | 0.00 | 0.03 | 0.03 | 10 | 1018.1 |
| 20260830145004 | 35 | 188 | 4.8 | 17.7 | 0.00 | 0.03 | 0.03 | 10 | 1018.2 |
| 20260830144004 | 34 | 196 | 4.8 | 19.3 | 0.00 | 0.03 | 0.03 | 11 | 1018.3 |
| 20260830143003 | 33 | 201 | 6.4 | 17.7 | 0.00 | 0.03 | 0.03 | 12 | 1018.1 |
| 20260830142005 | 33 | 248 | 6.4 | 17.7 | 0.00 | 0.03 | 0.03 | 12 | 1018.2 |
| 20260830141003 | 32 | 191 | 6.4 | 17.7 | 0.00 | 0.03 | 0.03 | 18 | 1018.3 |
| 20260830140004 | 33 | 201 | 12.9 | 19.3 | 0.00 | 0.03 | 0.03 | 12 | 1018.5 |
| 20260830135004 | 32 | 235 | 3.2 | 12.9 | 0.00 | 0.03 | 0.03 | 19 | 1018.5 |
| 20260830134004 | 32 | 221 | 6.4 | 22.5 | 0.00 | 0.03 | 0.03 | 18 | 1018.5 |
| 20260830133003 | 32 | 226 | 6.4 | 20.9 | 0.00 | 0.03 | 0.03 | 18 | 1018.5 |
| 20260830132003 | 32 | 284 | 6.4 | 14.5 | 0.00 | 0.03 | 0.03 | 19 | 1018.7 |
| 20260830130004 | 32 | 240 | 4.8 | 14.5 | 0.00 | 0.03 | 0.03 | 19 | 1018.6 |
| 20260830124004 | 31 | 231 | 6.4 | 8.0 | 0.00 | 0.03 | 0.03 | 22 | 1018.8 |
| 20260830123004 | 31 | 226 | 1.6 | 8.0 | 0.00 | 0.03 | 0.03 | 23 | 1019.0 |
| 20260830122004 | 30 | 225 | 3.2 | 12.9 | 0.00 | 0.03 | 0.03 | 23 | 1019.0 |
| 20260830120004 | 31 | 210 | 9.7 | 19.3 | 0.00 | 0.03 | 0.03 | 22 | 1019.1 |
| 20260830115004 | 30 | 200 | 6.4 | 20.9 | 0.00 | 0.03 | 0.03 | 25 | 1019.2 |
| 20260830113003 | 30 | 224 | 6.4 | 17.7 | 0.00 | 0.03 | 0.03 | 26 | 1019.5 |
| 20260830112004 | 30 | 198 | 11.3 | 17.7 | 0.00 | 0.03 | 0.03 | 26 | 1019.3 |
| 20260830111004 | 30 | 181 | 6.4 | 12.9 | 0.00 | 0.05 | 0.03 | 29 | 1019.6 |
| 20260830110005 | 30 | 191 | 4.8 | 14.5 | 0.00 | 0.05 | 0.03 | 30 | 1019.9 |
| 20260830105004 | 30 | 204 | 9.7 | 16.1 | 0.00 | 0.05 | 0.03 | 30 | 1019.7 |
| 20260830104004 | 31 | 191 | 6.4 | 16.1 | 0.00 | 0.05 | 0.03 | 28 | 1019.8 |
| 20260830103004 | 30 | 197 | 6.4 | 17.7 | 0.00 | 0.05 | 0.03 | 30 | 1020.0 |
| 20260830102004 | 29 | 220 | 3.2 | 12.9 | 0.00 | 0.05 | 0.03 | 31 | 1020.0 |
| 20260830101003 | 28 | 206 | 6.4 | 16.1 | 0.00 | 0.05 | 0.03 | 33 | 1020.0 |
| 20260830100004 | 28 | 191 | 3.2 | 9.7 | 0.00 | 0.05 | 0.03 | 36 | 1020.0 |
| 20260830095003 | 28 | 206 | 8.0 | 11.3 | 0.00 | 0.05 | 0.03 | 37 | 1019.9 |
| 20260830094004 | 27 | 203 | 6.4 | 14.5 | 0.00 | 0.05 | 0.03 | 38 | 1020.3 |
| 20260830093004 | 27 | 205 | 4.8 | 12.9 | 0.00 | 0.05 | 0.03 | 40 | 1020.4 |
| 20260830092004 | 27 | 201 | 3.2 | 11.3 | 0.00 | 0.05 | 0.03 | 41 | 1020.4 |
| 20260830091004 | 27 | 185 | 8.0 | 11.3 | 0.00 | 0.05 | 0.03 | 44 | 1020.6 |
| 20260830090005 | 26 | 193 | 6.4 | 14.5 | 0.00 | 0.05 | 0.03 | 44 | 1020.3 |
| 20260830085003 | 27 | 200 | 6.4 | 11.3 | 0.00 | 0.05 | 0.03 | 44 | 1020.3 |
| 20260830084004 | 27 | 173 | 3.2 | 12.9 | 0.00 | 0.05 | 0.03 | 47 | 1020.6 |
| 20260830083003 | 26 | 183 | 8.0 | 11.3 | 0.00 | 0.05 | 0.03 | 51 | 1020.7 |
| 20260830081003 | 24 | 173 | 0.0 | 6.4 | 0.00 | 0.05 | 0.03 | 57 | 1020.7 |
| 20260830075004 | 23 | 198 | 3.2 | 6.4 | 0.00 | 0.05 | 0.03 | 62 | 1020.5 |
| 20260830074004 | 22 | 214 | 0.0 | 6.4 | 0.00 | 0.05 | 0.03 | 62 | 1020.8 |
| 20260830072004 | 22 | 206 | 4.8 | 8.0 | 0.00 | 0.05 | 0.03 | 66 | 1020.7 |
| 20260830071004 | 21 | 1 | 0.0 | 1.6 | 0.00 | 0.05 | 0.03 | 70 | 1020.8 |
| 20260830070004 | 21 | 270 | 0.0 | 3.2 | 0.00 | 0.05 | 0.03 | 71 | 1020.7 |